Regional Weather Roundup
Issued by NWS Wakefield, VA

Home | Current Version | Previous Version | Graphics & Text | Print | Product List | Glossary On
Versions: 1 2 3 4 5 6 7 8 9 10 11 12 13 14 15 16 17 18 19 20 21 22 23 24 25 26 27 28
000
ASUS41 KAKQ 080815
RWRAKQ

REGIONAL WEATHER ROUNDUP
NATIONAL WEATHER SERVICE WAKEFIELD VA
300 AM EST THU DEC 08 2016

Note: "fair" indicates few or no clouds below 12,000 feet with no
significant weather and/or obstructions to visibility. * = Denotes
station may not report precipitation (e.g., rain,snow,etc.),
thunder or fog.

VAZ042-051-052>054-056-080900-
NORTHERN VIRGINIA

CITY           SKY/WX    TMP DP  RH WIND       PRES   REMARKS
WASH NATIONAL  CLOUDY    38  35  89 CALM      30.07S
DULLES         CLOUDY    32  29  88 CALM      30.06S
FORT BELVOIR   CLOUDY    32  30  94 CALM      30.06F
QUANTICO       CLOUDY    36  33  89 NW5       30.07F
FREDERICKSBRG* CLOUDY    34  34 100 CALM      30.05F
STAFFORD*      CLOUDY    32  32 100 CALM      30.10S
WARRENTON      CLOUDY    32  29  87 CALM      30.05S
CULPEPER*      CLOUDY    32  32  99 CALM      30.07S
MANASSAS*        N/A    N/A N/A N/A MISG        N/A
LEESBURG*      MOCLDY    34  32  93 MISG      30.06S
WINCHESTER     CLOUDY    30  27  86 CALM      30.05R
FRONT ROYAL*   CLOUDY    30  30 100 CALM      30.04R
LURAY*         FAIR      30  30 100 CALM      30.04S
$$

VAZ048-049-060>072-079>083-080900-
CENTRAL AND SOUTH CENTRAL VIRGINIA

CITY           SKY/WX    TMP DP  RH WIND       PRES   REMARKS
RICHMOND       CLOUDY    41  38  89 CALM      30.05S
CHESTERFIELD*  FAIR      41  25  52 CALM      30.06S
PETERSBURG*    MOCLDY    36  35  96 CALM      30.06F FOG
HANOVER        CLOUDY    36  33  89 CALM      30.06S
TAPPAHANNOCK*  CLOUDY    34  34 100 CALM      30.06F
QUINTON*       FAIR      36  35  97 CALM      30.05S
CHARLOTTSVILLE MOCLDY    36  33  89 CALM      30.03F
GORDONSVILLE*  PTSUNNY   32  32 100 CALM      30.04F
ORANGE*          N/A     32  32 100 CALM      30.06F
LOUISA*        MOCLDY    36  34  93 CALM      30.03S
BUMPASS*       FAIR      32  32 100 CALM      30.04F
FARMVILLE*     CLOUDY    38  38  99 CALM      30.03S
CREWE*         FAIR      42  42 100 S3        30.03F
FORT PICKETT*  FAIR      41  38  88 CALM      30.03F
CHASE CITY*    CLOUDY    40  39  95 CALM      30.03F
CLARKSVILLE*   FAIR      41  41 100 CALM      30.02F
SOUTH HILL*    CLOUDY    41  41 100 CALM      30.09F
LAWRENCEVILLE* FAIR      41  40  97 CALM      30.04F
EMPORIA*       MOCLDY    39  37  93 CALM      30.07S
$$

VAZ088>098-080900-
SOUTHEAST VIRGINIA

CITY           SKY/WX    TMP DP  RH WIND       PRES   REMARKS
NORFOLK        CLOUDY    42  39  89 CALM      30.05F
VIRGINIA BEACH CLOUDY    39  36  89 E3        30.05F
NORFOLK NAVAL  CLOUDY    42  39  89 S3        30.06F
WEST POINT*    CLOUDY    35  34  97 CALM      30.08S
SALUDA*        FAIR      37  37 100 CALM      30.05F
NEWPORT NEWS   PTCLDY    37  36  96 CALM      30.05F FOG
LANGLEY AFB    MOCLDY    41  40  97 CALM      30.04F
FORT EUSTIS    PTCLDY    41  39  92 CALM      30.03S
WILLIAMSBURG*  PTCLDY    39  39 100 CALM      30.07S
HR EXEC AP*    FAIR      37  36  93 CALM      30.04F
FRANKLIN*      CLOUDY    41  40  93 CALM      30.07S
US460-WAKEFLD  CLOUDY    38  38 100 CALM      30.05F FOG
$$

VAZ020-022-025-037-045-080900-
WEST CENTRAL AND SOUTHWEST VIRGINIA

CITY           SKY/WX    TMP DP  RH WIND       PRES   REMARKS
STAUNTON*      CLOUDY    29  28  96 CALM      30.05S
WAYNESBORO*    CLOUDY    32  30  92 CALM      30.02S
HOT SPRINGS VA CLOUDY    30  12  47 W10       29.96S WCI  21
LYNCHBURG      MOCLDY    36  34  92 CALM      30.04S
DANVILLE       MOCLDY    38  36  92 NW3       30.04R
SOUTH BOSTON*  FAIR      35  33  95 CALM      30.04R
MARTINSVILLE   CLOUDY    36  35  94 CALM      30.05F
ROANOKE        CLOUDY    41  32  70 N7        30.05F
BLACKSBURG     CLOUDY    38  29  71 W6        30.06S
DUBLIN*        CLOUDY    39  32  75 CALM      30.06R
MARION*        CLOUDY    36  31  82 W3        30.08R
HILLSVILLE*    CLOUDY    38  30  71 CALM      30.02R
RICHLANDS*     CLOUDY    33  28  83 CALM      30.07F
WISE*          CLOUDY    34  28  80 NW3       30.09S
ABINGDON*      CLOUDY    39  34  82 CALM      30.08S
$$

MDZ021>025-VAZ099-100-080900-
SOUTHERN MARYLAND AND THE DELMARVA PENINSULA

CITY           SKY/WX    TMP DP  RH WIND       PRES   REMARKS
PATUXENT RIVER PTCLDY    35  33  92 CALM      30.06S
BAY BRIDGE APT CLOUDY    43  34  70 W6        30.05F
LEONARDTOWN    PTCLDY    32  30  93 CALM      30.06F
DOVER          PTCLDY    35  35 100 SW6       30.04S
GEORGETOWN     PTCLDY    33  31  92 CALM      30.06S
EASTON         PTCLDY    34  32  93 CALM      30.09F
CAMBRIDGE      PTCLDY    32  30  93 CALM      30.05S
SALISBURY      CLOUDY    32  30  92 CALM      30.05S
OCEAN CITY     MOCLDY    36  34  92 W5        30.06S FOG
WALLOPS ISLAND PTCLDY    34  34 100 CALM      30.06F
ACCOMACK*      PTCLDY    34  33  98 S3        30.06F
$$

NCZ012>017-030>032-080900-
NORTH CENTRAL AND EASTERN NORTH CAROLINA

CITY           SKY/WX    TMP DP  RH WIND       PRES   REMARKS
ROANOKE RAPIDS CLOUDY    43  43 100 CALM      30.05F
RALEIGH        CLOUDY    50  44  80 S3        30.03F
ELIZABETH CITY CLOUDY    40  40 100 CALM      30.07F
AHOSKIE*       CLOUDY    44  43  96 CALM      30.07S
EDENTON*       NOT AVBL
CURRITUCK*     CLOUDY    41  41 100 CALM      30.07F
KILL DEVIL HLS CLOUDY    46  46 100 CALM      30.06S
MANTEO         FOG       40  40 100 CALM      30.08R VSB 1/2
CAPE HATTERAS  NOT AVBL
TARBORO*       NOT AVBL
GOLDSBORO      CLOUDY    50  49  97 SE7       30.02F
WASHINGTON     CLOUDY    44  43  96 CALM      30.07F
GREENVILLE     CLOUDY    45  45 100 CALM      30.07F
NEW BERN       CLOUDY    48  46  93 SE3       30.08S
WILMINGTON     CLOUDY    46  46 100 CALM      30.06F
$$

VAZ048-080900-
ELSEWHERE

CITY           SKY/WX    TMP DP  RH WIND       PRES   REMARKS
HARRISBURG PA  MOCLDY    35  26  69 SE3       30.02F
BALTIMORE      MOCLDY    31  30  96 CALM      30.04F
ANNAPOLIS      MOCLDY    38  35  89 CALM      30.05F
ANDREWS AFB    CLOUDY    32  30  90 CALM      30.04F
PHILADELPHIA   CLOUDY    35  29  78 SW7       30.04S
HENDERSON NC   CLOUDY    43  39  88 S3        30.03F
GREENSBORO     CLOUDY    47  43  86 CALM      30.02R
ROCKY MOUNT    CLOUDY    47  46  97 CALM      30.05F
$$

VAZ100-080900-
MARINE

STATION/POSITION TIME  TEMP    WIND        PRES    WAVE   SWELL
                       AIR SEA DIR/SP/G            HT/PER HT/PER
                 (UTC) (F)     (DEG/KT/KT) (MB)    (FT/S) (FT/S)
BRANDYWINE LGT   0748   44     270/ 11/ 13   N/A
CAPE MAY NJ      0748   44 48  280/ 10/ 12 1017.2R
LEWES DE         0748   38 48  260/  3/  4 1017.6R
OCEAN-CITY-INLET 0748      50  280/  4/  5 1018.3R
WACHAPREAGUE VA  0748   39 49  270/  2/  2 1018.0F
THOMAS POINT MD  0800   43 48  290/  6/  6   N/A
GOOSES REEF MD   0750   45     260/  4/  8 1018.3S
COVE POINT MD    0748   44     260/  2/  5 1018.1F
SOLOMONS ISLAND  0748      50  330/  3/  4   N/A
BISHOPS HEAD MD  0748   46 47  190/  4/  5 1017.8S
PINEY POINT MD   0748           CALM  /  1   N/A
POTOMAC MD       0750   45     240/  8/ 10 1016.8S
CAMBRIDGE MD     0748   37 47  120/  3/  3 1016.9F
LEWISETTA VA     0748   42 48  230/  4/  4 1017.4F
RAPPAHANNOCK LGT 0748          160/  8/  9 1018.0F
STINGRAY PT      0750   47     200/  6/  6 1017.8F
YORK RVR RNG VA  0748   48     180/  8/  9 1017.0F
YORKTOWN VA      0748   45 51  180/  5/  5 1017.1F
JAMESTOWN VA     0750   44     180/  4/  6   N/A
DOMINION TERM VA 0748   47     160/  7/  7 1017.5F
KIPTOPEKE VA     0748      51  110/  3/  3   N/A
CHES BAY BRIDGE  0748   48 53  140/  3/  5 1017.3F
CAPE HENRY VA    0748   47     160/  5/  5   N/A
WILLOUBY STN VA  0748   47     160/  6/  6 1018.3F
S CRANEY ISL VA  0748   47     160/  5/  5 1017.3F
CAPE HENRY BUOY  0742      54                N/A     4/11   2/11
CAPE CHARLES BUO 0756      54                N/A     4/10   2/11
OFFSHORE WE BUOY 0751      56                N/A     4/ 9   2/12
64NM E OF VA BCH 0750   52 58  320/  8/ 12 1016.9    6/ 8   5/ 8
DUCK PIER NC     0748   49 54  280/  3/  4 1017.5F
44100 DUCK FRF   0735      55                N/A     4/ 9   2/11
OREGON INLET NC  0742   48 56  280/  3/  4 1017.9F
HATTERAS NC      0748      60   40/  3/  5 1017.5F
DIAMOND SHLS NC  0750   54 78  360/  8/ 10 1018.0    6/10   5/10
CAPE LOOKOUT NC  0800   54      30/  5/  5 1017.8F
$$




USA.gov is the U.S. government's official web portal to all federal, state and local government web resources and services.